Regional Weather Roundup
Issued by NWS Albany, NY

Home | Current Version | Previous Version | Graphics & Text | Print | Product List | Glossary Off
Versions: 1 2 3 4 5 6 7 8 9 10 11 12 13 14 15 16 17 18 19 20 21 22 23 24 25 26 27 28 29 30 31 32 33 34 35 36 37 38 39 40 41 42 43 44 45 46 47 48 49 50

000
ASUS41 KALY 290310
RWRALY

NEW YORK STATE HOURLY WEATHER ROUNDUP
NATIONAL WEATHER SERVICE ALBANY NY
1100 PM EDT THU MAY 28 2015

NOTE: "FAIR" INDICATES FEW OR NO CLOUDS BELOW 12,000 FEET WITH NO
SIGNIFICANT WEATHER AND/OR NO OBSTRUCTIONS TO VISIBILITY.

NYZ032-033-038>043-046>054-057>066-NYZ062>081-290400-
EAST


CITY           SKY/WX    TMP DP  RH WIND       PRES   REMARKS
ALBANY         PTCLDY    63  53  70 W6        30.27R
GLENS FALLS    MOCLDY    65  54  67 N5        30.26R
POUGHKEEPSIE   CLEAR     68  54  60 N3        30.25R
NEWBURGH       CLEAR     66  55  68 N7        30.27R
MONTGOMERY     CLEAR     61  55  81 CALM      30.25R
WHITE PLAINS   PTCLDY    70  56  61 N9        30.23R
ISLIP          MOCLDY    64  61  90 NW3       30.21R
NEW YORK CITY  MOCLDY    75  54  47 N12       30.21R
CENTRAL PARK   PTCLDY    76  53  44 VRB3      30.25R
$$

NYZ005>009-017-018-044>046-055-056-290400-
CENTRAL


CITY           SKY/WX    TMP DP  RH WIND       PRES   REMARKS
FULTON         CLEAR     59  55  87 CALM      30.28S
SYRACUSE       PTCLDY    61  56  83 SE3       30.28R
ROME           CLEAR     56  53  90 CALM      30.30R
ELMIRA         CLEAR     56  53  90 CALM      30.29R
BINGHAMTON     CLEAR     63  51  65 CALM      30.31R
MONTICELLO     CLEAR     61  54  77 CALM      30.31R
$$

NYZ026>034-041>043-290400-
NORTH


CITY           SKY/WX    TMP DP  RH WIND       PRES   REMARKS
WATERTOWN      CLEAR     54  52  93 CALM      30.27S
FORT DRUM      NOT AVBL
MASSENA        CLEAR     54  53  97 N3        30.29R
SARANAC LAKE   FOG       46  46 100 CALM      30.29S VSB 3/4
PLATTSBURGH    CLOUDY    64  56  75 N5        30.26R
$$

NYZ001>004-010>016-019>021-290400-
WEST


CITY           SKY/WX    TMP DP  RH WIND       PRES   REMARKS
NIAGARA FALLS  PTCLDY    63  53  70 NE3       30.27R
BUFFALO        PTCLDY    67  52  58 N5        30.27S
DUNKIRK        CLEAR     57  55  93 CALM      30.28R
JAMESTOWN      CLEAR     64  48  55 NE6       30.31R
WELLSVILLE     CLEAR     60  52  74 E3        30.34R
ROCHESTER      CLEAR     62  56  80 W3        30.28R
PENN YAN       CLEAR     57  52  83 CALM      30.29S
$$

             KEY
       WCI = WIND CHILL INDEX
       VSB = VISIBILITY
       HX  = HEAT INDEX
$$


USA.gov is the U.S. government's official web portal to all federal, state and local government web resources and services.